Location: Unspecified
(0.0000°N, 0.0000°E)
Time: 23:29:00
(UTC+00:00)

Tiros 1 despin weight - Visible Passes

Search period start: 16 September 2014 00:00
Search period end: 26 September 2014 00:00
Orbit: 601 x 652 km, 48.2° (Epoch: 15 September)

Date Brightness Start Highest point End Pass type
(mag) Time Alt. Az. Time Alt. Az. Time Alt. Az.
16 Sep ? 19:50:40 10° WSW 19:54:36 32° NW 19:54:36 32° NW visible
17 Sep ? 18:28:05 10° SSW 18:32:24 51° SE 18:36:42 10° NE visible
17 Sep ? 20:12:43 10° WNW 20:14:00 11° NW 20:14:38 11° NW visible
18 Sep ? 18:47:24 10° SW 18:51:42 50° NW 18:56:00 10° NNE visible
19 Sep ? 05:16:12 10° N 05:19:42 21° NE 05:23:13 10° E visible
19 Sep ? 19:08:06 10° W 19:11:03 17° NW 19:13:59 10° N visible
21 Sep ? 04:14:23 10° NNE 04:16:42 14° NE 04:19:03 10° E visible
22 Sep ? 04:31:44 10° NNW 04:36:04 37° NE 04:40:25 10° ESE visible
23 Sep ? 04:51:23 14° NW 04:55:21 76° SW 05:00:05 10° SE visible
24 Sep ? 03:33:59 23° ENE 03:33:59 23° ENE 03:36:52 10° ESE visible
24 Sep ? 05:11:18 13° WNW 05:14:40 26° SW 05:18:38 10° S visible
25 Sep ? 03:53:45 44° ESE 03:53:45 44° ESE 03:57:04 10° SE visible
